Skip Page Navigation
NASA JPL Caltech
NASA Logo - Jet Propulsion Laboratory + View the NASA Portal
+ Center for Near-Earth Object Studies
JPL Home Earth Solar System Stars & Galaxies Technology
JPL Solar System Dynamics
BODIES ORBITS EPHEMERIDES TOOLS PHYSICAL DATA DISCOVERY FAQ SITE MAP
JPL Small-Body Database Browser
Search: [ help ]  
43713 (5104 T-2)
Classification: Main-belt Asteroid          SPK-ID: 2043713
Ephemeris | Orbit Diagram | Orbital Elements | Mission Design | Physical Parameters | Discovery Circumstances ]

[ show orbit diagram ]
Orbital Elements at Epoch 2459396.5 (2021-Jul-01.0) TDB
Reference: JPL 30 (heliocentric ecliptic J2000)
 Element Value Uncertainty (1-sigma)   Units 
e .01444690910791737 3.6407e-08  
a 2.953554021380175 1.8164e-08 au
q 2.910884294887972 1.093e-07 au
i 7.681802618815157 4.1076e-06 deg
node 252.4249368849245 2.945e-05 deg
peri 198.410348252862 0.00015178 deg
M 64.76738561746637 0.00014726 deg
tp 2459062.943298225173
(2020-Aug-01.44329823)
0.00075883 TDB
period 1854.025934413423
5.08
1.7103e-05
4.683e-08
d
yr
n .1941720411337702 1.7912e-09 deg/d
Q 2.996223747872379 1.8426e-08 au
  Orbit Determination Parameters
   # obs. used (total)      975  
   data-arc span      17366 days (47.55 yr)  
   first obs. used      1973-09-20  
   last obs. used      2021-04-07  
   planetary ephem.      DE441  
   SB-pert. ephem.      SB441-N16  
   condition code      0  
   norm. resid. RMS      .52767  
   source      ORB  
   producer      Otto Matic  
   solution date      2021-Jul-08 21:06:18  

Additional Information
 Earth MOID = 1.92747 au 
 Jupiter MOID = 2.07383 au 
 T_jup = 3.255 
[ show covariance matrix ]

Ephemeris | Orbit Diagram | Orbital Elements | Mission Design | Physical Parameters | Discovery Circumstances ]

Physical Parameter Table
Parameter Symbol Value Units Sigma Reference Notes
absolute magnitude H 14.95   n/a MPCxxxxx  
diameter diameter 3.728 km 1.084 urn:nasa:pds:neowise_diameters_albedos::2.0[mainbelt] (http://adsabs.harvard.edu/abs/2011ApJ...741...68M)  
geometric albedo albedo 0.168   0.050 urn:nasa:pds:neowise_diameters_albedos::2.0[mainbelt] (http://adsabs.harvard.edu/abs/2011ApJ...741...68M)  

43713 (5104 T-2)          Discovered 1973-Sep-25 by van Houten, C. J., van Houten-Groeneveld, I., Gehrels, T. at Palomar
Reference: 20020624/Numbers.arcLast Updated: 2004-04-19

Alternate Designations
 5104 T-2 = 1981 EN32 
Ephemeris | Orbit Diagram | Orbital Elements | Mission Design | Physical Parameters | Discovery Circumstances ]
ABOUT SSD CREDITS/AWARDS PRIVACY/COPYRIGHT GLOSSARY LINKS
FirstGov 2021-Jul-23 23:51 UT
(server date/time)  
NASA Home Page
Site Manager:   Ryan S. Park
Webmaster  Alan B. Chamberlin